Estació municipal de Aiguafreda (Osona, P.N. del Montseny)

Consulta les dades en temps real de l'estació municipal de Aiguafreda





Hora UTC 02:25
Temperatura 20.8 ºC
Sòl 15 cm 20.1 ºC
Humitat 82.7 %
Pressió 1020.9 hPa
Pluja 0.0 mm
Velocitat vent 0.0 km/h
Direcció vent NNE

Dades diàries 2026-09-01



Hora UTC (hivern +1h; estiu +2h)
Temperatura (ºC) Humitat (%) Pressió (hPa) Velocitat vent (km/h) Precipitació (mm)
Hora UTC Aire Sòl 15 cm Humitat Pressió Vel. Dir. Vel. Max Dir. Intent. màx 5 min.
00:05 19.7 18.6 87.1 1021.4 0.0 NNE 0.0 N 0.0
00:10 19.8 18.7 87.1 1021.4 0.0 NNE 0.0 N 0.0
00:15 19.8 18.8 87.0 1021.3 0.0 NNE 0.0 N 0.0
00:20 19.8 18.9 87.0 1021.3 0.0 NNE 0.0 SSE 0.0
00:25 19.9 19.0 86.7 1021.3 0.0 NNE 0.0 SE 0.0
00:30 19.9 19.0 86.2 1021.3 0.0 NNE 0.0 SSE 0.0
00:35 19.9 19.0 85.9 1021.3 0.0 NNE 0.0 W 0.0
00:40 19.8 19.0 85.9 1021.3 0.0 NNE 0.0 NW 0.0
00:45 19.9 19.2 85.7 1021.3 0.0 NNE 0.0 SSE 0.0
00:50 20.0 19.3 85.3 1021.3 0.0 NNE 0.0 SE 0.0
00:55 20.0 19.4 84.9 1021.3 0.0 NNE 0.0 SE 0.0
01:00 20.1 19.5 84.6 1021.3 0.0 NNE 0.0 SSE 0.0
01:05 20.1 19.4 84.6 1021.2 0.0 NNE 0.0 S 0.0
01:10 20.1 19.4 84.7 1021.2 0.0 NNE 0.0 SSE 0.0
01:15 20.1 19.4 84.7 1021.2 0.0 NNE 0.0 SE 0.0
01:20 20.1 19.4 84.8 1021.2 0.0 NNE 0.0 SE 0.0
01:25 20.1 19.4 85.0 1021.1 0.0 NNE 0.0 NW 0.0
01:30 20.1 19.5 85.0 1021.2 0.0 NNE 0.0 NW 0.0
01:35 20.2 19.6 84.8 1021.1 0.0 NNE 0.0 NE 0.0
01:40 20.3 19.7 84.6 1021.2 0.0 NNE 0.0 NE 0.0
01:45 20.3 19.8 84.4 1021.2 0.0 NNE 0.0 NE 0.0
01:50 20.4 19.9 84.3 1021.2 0.0 NNE 0.0 NE 0.0
01:55 20.5 19.9 84.0 1021.1 0.0 NNE 0.0 NE 0.0
02:00 20.6 20.1 83.8 1021.2 0.0 NNE 0.0 NE 0.0
02:05 20.7 20.2 83.4 1021.1 0.0 NNE 0.0 NE 0.0
02:10 20.7 20.2 83.1 1021.1 0.0 NNE 0.0 SW 0.0
02:15 20.8 20.2 82.9 1021.1 0.0 NNE 0.0 W 0.0
02:20 20.8 20.2 82.7 1021.0 0.0 NNE 0.0 W 0.0
02:25 20.8 20.1 82.7 1020.9 0.0 NNE 0.0 W 0.0
Màxima 20.8 20.2 87.1 1021.4 0.0 NNE 0.0 W 0.0
Mínima 19.7 18.6 82.7 1020.9
Total 0.0